map of KCH home
Great Circle Mapper logo
KCH - Airport
Location
City:  Kuching, Sarawak, Borneo, Malaysia
ICAO / IATA:WBGG / KCH

Details
Type:Airport (Aerodrome, Airfield)
Use:Public/Civil, International (customs port of entry)
Latitude:129'05"N (1.484697)
Longitude:11020'49"E (110.346933)
Datum:WGS 1984
Elevation:89 ft (27 m)
Variation:0.5E (WMM2015 magnetic declination)
Runways:1
Longest:8051 × 151 ft (2454 × 46 m), paved

Time
Time Zone:UTC+8
Local Time:

Weather
METAR:WBGG 220100Z 17002KT 9999 FEW014 SCT150 BKN300 27/23 Q1009 NOSIG
TAF:WBGG 212300Z 2200/2224 13005KT 9999 FEW020 SCT150 BKN300
TEMPO 2207/2210 3000 TSRA FEW015CB SCT016 BKN150

Related Locations
Nearby:
Farthest:LPD: 12446 mi / 20029 km
La Pedrera, CO

Find:

   beyond  
but within

Other Information
Maps:
NOTAMs:
Links:
Sources:

  
flag of Malaysia   

Sectional Chart

Flight Planning
at skyvector.com

Satellite Image

Google Maps Satellite View

 

Copyright © 2004-2014 Karl L. Swartz. All rights reserved.
The Great Circle Mapper name and logo are trademarks of the Great Circle Mapper.
All other trademarks mentioned herein belong to their respective owners.
Please see credits for attibutions and further copyright information.

  Follow gcmap on Facebook Follow gcmap on Twitter

hCard Microformat

Geo Microformat